Zurück zum Katalog

FENGYUN 1C DEB

LostPO
NORAD 32431·DEBRIS·🇨🇳 China

Gestartet May 10, 1999 von Taiyuan Satellite Launch Center

Loading…

Nächste Überflüge (nächste 24 Stunden)

TLE

VeraltetSource: Space-Track

Epoche: Nov 18, 2022, 11:29 UTC

1 32431U 99025DAT 22322.47912130  .00002840  00000-0  13062-2 0  9994
2 32431  99.5497  49.7479 0071238  37.1332  26.3457 14.20718870794115

Verfolge FENGYUN 1C DEB in Echtzeit mit AllMySat

Download on the App Store